Time,TemperatureF,DewpointF,PressureIn,WindDirection,WindDirectionDegrees,WindSpeedMPH,WindSpeedGustMPH,Humidity,HourlyPrecipIn,Conditions,Clouds,dailyrainin,SoftwareType,DateUTC
2013-11-02 00:13:00,59.6,59.0,31.12,NE,42,0.0,-999.0,97,-99.99,,,0.00,weatherlink.com 1.10,2013-11-02 04:13:00,
2013-11-02 00:28:00,59.2,58.0,31.12,NE,42,0.0,-999.0,96,-99.99,,,0.00,weatherlink.com 1.10,2013-11-02 04:28:00,
2013-11-02 00:43:00,59.0,58.0,31.12,NE,42,0.0,-999.0,96,-99.99,,,0.00,weatherlink.com 1.10,2013-11-02 04:43:00,
2013-11-02 00:58:00,58.8,58.0,31.12,NE,42,0.0,-999.0,97,-99.99,,,0.00,weatherlink.com 1.10,2013-11-02 04:58:00,
2013-11-02 01:13:00,58.5,57.0,31.12,NE,42,0.0,-999.0,96,-99.99,,,0.00,weatherlink.com 1.10,2013-11-02 05:13:00,
2013-11-02 01:28:00,57.9,57.0,31.12,NE,42,0.0,-999.0,96,-99.99,,,0.00,weatherlink.com 1.10,2013-11-02 05:28:00,
2013-11-02 01:43:00,58.2,57.0,31.12,NNE,19,0.0,-999.0,97,-99.99,,,0.00,weatherlink.com 1.10,2013-11-02 05:43:00,
2013-11-02 01:58:00,57.9,57.0,31.12,NNE,19,0.0,-999.0,96,-99.99,,,0.00,weatherlink.com 1.10,2013-11-02 05:58:00,
2013-11-02 02:13:00,57.2,56.0,31.12,NNE,19,0.0,-999.0,96,-99.99,,,0.00,weatherlink.com 1.10,2013-11-02 06:13:00,
2013-11-02 02:28:00,56.6,56.0,31.12,NNE,19,0.0,-999.0,96,-99.99,,,0.00,weatherlink.com 1.10,2013-11-02 06:28:00,
2013-11-02 02:43:00,55.9,55.0,31.12,NNE,19,0.0,-999.0,96,-99.99,,,0.00,weatherlink.com 1.10,2013-11-02 06:43:00,
2013-11-02 02:59:00,55.2,54.0,31.12,NNE,19,0.0,-999.0,95,-99.99,,,0.00,weatherlink.com 1.10,2013-11-02 06:59:00,
2013-11-02 03:14:00,54.3,53.0,31.12,NNW,334,0.0,-999.0,94,-99.99,,,0.00,weatherlink.com 1.10,2013-11-02 07:14:00,
2013-11-02 03:29:00,54.6,52.0,31.12,NW,306,0.0,-999.0,90,-99.99,,,0.00,weatherlink.com 1.10,2013-11-02 07:29:00,
2013-11-02 03:44:00,55.2,52.0,31.12,NW,306,0.0,-999.0,88,-99.99,,,0.00,weatherlink.com 1.10,2013-11-02 07:44:00,
2013-11-02 03:59:00,55.8,52.0,31.12,NW,306,0.0,-999.0,88,-99.99,,,0.00,weatherlink.com 1.10,2013-11-02 07:59:00,
2013-11-02 04:14:00,55.8,52.0,31.12,NW,306,0.0,-999.0,87,-99.99,,,0.00,weatherlink.com 1.10,2013-11-02 08:14:00,
2013-11-02 04:29:00,55.9,52.0,31.12,NW,306,0.0,-999.0,87,-99.99,,,0.00,weatherlink.com 1.10,2013-11-02 08:29:00,
2013-11-02 04:44:00,55.6,52.0,31.12,NW,306,0.0,-999.0,87,-99.99,,,0.00,weatherlink.com 1.10,2013-11-02 08:44:00,
2013-11-02 04:59:00,55.6,52.0,31.12,NW,306,0.0,-999.0,88,-99.99,,,0.00,weatherlink.com 1.10,2013-11-02 08:59:00,
2013-11-02 05:14:00,55.6,53.0,31.12,NW,306,0.0,-999.0,89,-99.99,,,0.00,weatherlink.com 1.10,2013-11-02 09:14:00,
2013-11-02 05:29:00,55.5,52.0,31.12,NW,306,0.0,-999.0,89,-99.99,,,0.00,weatherlink.com 1.10,2013-11-02 09:29:00,
2013-11-02 05:44:00,55.3,53.0,31.12,NW,306,0.0,-999.0,90,-99.99,,,0.00,weatherlink.com 1.10,2013-11-02 09:44:00,
2013-11-02 05:59:00,55.1,52.0,31.12,NW,306,0.0,-999.0,90,-99.99,,,0.00,weatherlink.com 1.10,2013-11-02 09:59:00,
2013-11-02 06:14:00,54.8,52.0,31.12,NW,306,0.0,-999.0,90,-99.99,,,0.00,weatherlink.com 1.10,2013-11-02 10:14:00,
2013-11-02 06:29:00,54.7,53.0,31.12,NW,306,0.0,-999.0,92,-99.99,,,0.00,weatherlink.com 1.10,2013-11-02 10:29:00,
2013-11-02 06:44:00,54.2,52.0,31.12,NW,306,0.0,-999.0,91,-99.99,,,0.00,weatherlink.com 1.10,2013-11-02 10:44:00,
2013-11-02 06:59:00,53.6,51.0,31.12,NW,306,0.0,-999.0,91,-99.99,,,0.00,weatherlink.com 1.10,2013-11-02 10:59:00,
2013-11-02 07:14:00,52.9,51.0,31.12,NW,306,0.0,-999.0,92,-99.99,,,0.00,weatherlink.com 1.10,2013-11-02 11:14:00,
2013-11-02 07:29:00,52.2,50.0,31.12,NW,306,0.0,-999.0,92,-99.99,,,0.00,weatherlink.com 1.10,2013-11-02 11:29:00,
2013-11-02 07:44:00,51.6,49.0,31.12,NW,306,0.0,-999.0,92,-99.99,,,0.00,weatherlink.com 1.10,2013-11-02 11:44:00,
2013-11-02 07:59:00,51.2,49.0,31.12,NW,306,0.0,-999.0,93,-99.99,,,0.00,weatherlink.com 1.10,2013-11-02 11:59:00,
2013-11-02 08:14:00,51.5,50.0,31.12,NW,306,0.0,-999.0,94,-99.99,,,0.00,weatherlink.com 1.10,2013-11-02 12:14:00,
2013-11-02 08:29:00,52.2,51.0,31.12,NW,306,0.0,-999.0,95,-99.99,,,0.00,weatherlink.com 1.10,2013-11-02 12:29:00,
2013-11-02 08:44:00,53.2,52.0,31.12,NW,306,0.0,-999.0,95,-99.99,,,0.00,weatherlink.com 1.10,2013-11-02 12:44:00,
2013-11-02 08:59:00,54.1,53.0,31.12,NW,306,0.0,-999.0,95,-99.99,,,0.00,weatherlink.com 1.10,2013-11-02 12:59:00,
2013-11-02 09:14:00,54.9,54.0,31.12,NW,306,0.0,-999.0,95,-99.99,,,0.00,weatherlink.com 1.10,2013-11-02 13:14:00,
2013-11-02 09:29:00,56.2,54.0,31.12,NW,306,0.0,-999.0,93,-99.99,,,0.00,weatherlink.com 1.10,2013-11-02 13:29:00,
2013-11-02 09:44:00,59.5,55.0,31.12,NW,306,0.0,-999.0,85,-99.99,,,0.00,weatherlink.com 1.10,2013-11-02 13:44:00,
2013-11-02 09:59:00,64.3,57.0,31.12,NW,306,0.0,-999.0,77,-99.99,,,0.00,weatherlink.com 1.10,2013-11-02 13:59:00,
2013-11-02 10:14:00,66.3,56.0,31.12,NW,306,0.0,-999.0,69,-99.99,,,0.00,weatherlink.com 1.10,2013-11-02 14:14:00,
2013-11-02 10:29:00,66.9,57.0,31.12,SSE,148,0.0,-999.0,70,-99.99,,,0.00,weatherlink.com 1.10,2013-11-02 14:29:00,
2013-11-02 10:44:00,66.9,56.0,31.12,SE,146,0.0,-999.0,68,-99.99,,,0.00,weatherlink.com 1.10,2013-11-02 14:44:00,
2013-11-02 10:59:00,66.9,56.0,31.12,ESE,109,0.0,-999.0,69,-99.99,,,0.00,weatherlink.com 1.10,2013-11-02 14:59:00,
2013-11-02 11:14:00,66.9,55.0,31.12,ESE,107,0.0,-999.0,65,-99.99,,,0.00,weatherlink.com 1.10,2013-11-02 15:14:00,
2013-11-02 11:29:00,66.8,52.0,31.12,West,277,1.0,-999.0,60,-99.99,,,0.00,weatherlink.com 1.10,2013-11-02 15:29:00,
2013-11-02 11:44:00,67.0,51.0,31.12,WNW,287,0.0,-999.0,56,-99.99,,,0.00,weatherlink.com 1.10,2013-11-02 15:44:00,
2013-11-02 11:59:00,67.1,53.0,31.12,WNW,296,0.0,-999.0,60,-99.99,,,0.00,weatherlink.com 1.10,2013-11-02 15:59:00,
2013-11-02 12:14:00,67.9,51.0,31.12,West,265,0.0,-999.0,55,-99.99,,,0.00,weatherlink.com 1.10,2013-11-02 16:14:00,
2013-11-02 12:29:00,67.6,51.0,31.12,West,277,0.0,-999.0,55,-99.99,,,0.00,weatherlink.com 1.10,2013-11-02 16:29:00,
2013-11-02 12:44:00,67.2,52.0,31.12,WNW,285,0.0,-999.0,58,-99.99,,,0.00,weatherlink.com 1.10,2013-11-02 16:44:00,
2013-11-02 12:59:00,66.4,52.0,31.12,WNW,292,2.0,-999.0,60,-99.99,,,0.00,weatherlink.com 1.10,2013-11-02 16:59:00,
2013-11-02 13:14:00,66.3,51.0,31.12,WNW,284,1.0,-999.0,58,-99.99,,,0.00,weatherlink.com 1.10,2013-11-02 17:14:00,
2013-11-02 13:29:00,66.4,51.0,31.12,West,261,0.0,-999.0,58,-99.99,,,0.00,weatherlink.com 1.10,2013-11-02 17:29:00,
2013-11-02 13:44:00,67.2,51.0,31.12,West,262,2.0,-999.0,56,-99.99,,,0.00,weatherlink.com 1.10,2013-11-02 17:44:00,
2013-11-02 13:59:00,67.6,52.0,31.12,NNW,344,1.0,-999.0,57,-99.99,,,0.00,weatherlink.com 1.10,2013-11-02 17:59:00,
2013-11-02 14:14:00,67.2,51.0,31.12,WNW,288,0.0,-999.0,57,-99.99,,,0.00,weatherlink.com 1.10,2013-11-02 18:14:00,
2013-11-02 14:29:00,67.0,51.0,31.12,WNW,287,0.0,-999.0,57,-99.99,,,0.00,weatherlink.com 1.10,2013-11-02 18:29:00,
2013-11-02 14:44:00,66.4,50.0,31.12,WNW,284,0.0,-999.0,56,-99.99,,,0.00,weatherlink.com 1.10,2013-11-02 18:44:00,
2013-11-02 14:59:00,66.2,50.0,31.12,WNW,296,1.0,-999.0,56,-99.99,,,0.00,weatherlink.com 1.10,2013-11-02 18:59:00,
2013-11-02 15:14:00,66.8,50.0,31.12,West,279,1.0,-999.0,56,-99.99,,,0.00,weatherlink.com 1.10,2013-11-02 19:14:00,
2013-11-02 15:29:00,66.6,50.0,31.12,WNW,284,0.0,-999.0,56,-99.99,,,0.00,weatherlink.com 1.10,2013-11-02 19:29:00,
2013-11-02 15:44:00,65.8,49.0,31.12,West,269,1.0,-999.0,56,-99.99,,,0.00,weatherlink.com 1.10,2013-11-02 19:44:00,
2013-11-02 15:59:00,64.9,50.0,31.12,WNW,286,5.0,-999.0,58,-99.99,,,0.00,weatherlink.com 1.10,2013-11-02 19:59:00,
2013-11-02 16:14:00,63.9,50.0,31.12,West,276,2.0,-999.0,60,-99.99,,,0.00,weatherlink.com 1.10,2013-11-02 20:14:00,
2013-11-02 16:29:00,62.7,50.0,31.12,WNW,300,6.0,-999.0,63,-99.99,,,0.00,weatherlink.com 1.10,2013-11-02 20:29:00,
2013-11-02 16:44:00,62.7,48.0,31.12,West,265,4.0,-999.0,60,-99.99,,,0.00,weatherlink.com 1.10,2013-11-02 20:44:00,
2013-11-02 16:59:00,62.5,48.0,31.12,West,266,0.0,-999.0,59,-99.99,,,0.00,weatherlink.com 1.10,2013-11-02 20:59:00,
2013-11-02 17:14:00,61.9,46.0,31.12,West,275,1.0,-999.0,56,-99.99,,,0.00,weatherlink.com 1.10,2013-11-02 21:14:00,
2013-11-02 17:30:00,61.6,46.0,31.12,WNW,296,2.0,-999.0,56,-99.99,,,0.00,weatherlink.com 1.10,2013-11-02 21:30:00,
2013-11-02 17:45:00,60.1,46.0,31.12,West,281,0.0,-999.0,59,-99.99,,,0.00,weatherlink.com 1.10,2013-11-02 21:45:00,
2013-11-02 18:00:00,59.5,46.0,31.12,West,263,0.0,-999.0,62,-99.99,,,0.00,weatherlink.com 1.10,2013-11-02 22:00:00,
2013-11-02 18:15:00,59.7,46.0,31.12,WNW,300,0.0,-999.0,60,-99.99,,,0.00,weatherlink.com 1.10,2013-11-02 22:15:00,
2013-11-02 18:30:00,59.3,44.0,31.12,WNW,287,0.0,-999.0,58,-99.99,,,0.00,weatherlink.com 1.10,2013-11-02 22:30:00,
2013-11-02 18:45:00,59.9,43.0,31.12,West,281,4.0,-999.0,55,-99.99,,,0.00,weatherlink.com 1.10,2013-11-02 22:45:00,
2013-11-02 19:00:00,59.9,45.0,31.12,West,281,4.0,-999.0,58,-99.99,,,0.00,weatherlink.com 1.10,2013-11-02 23:00:00,
2013-11-02 19:15:00,58.9,46.0,31.12,WNW,286,2.0,-999.0,62,-99.99,,,0.00,weatherlink.com 1.10,2013-11-02 23:15:00,
2013-11-02 19:30:00,58.6,45.0,31.12,WNW,298,0.0,-999.0,60,-99.99,,,0.00,weatherlink.com 1.10,2013-11-02 23:30:00,
2013-11-02 19:45:00,58.3,43.0,31.12,WNW,296,0.0,-999.0,58,-99.99,,,0.00,weatherlink.com 1.10,2013-11-02 23:45:00,
2013-11-02 20:00:00,57.8,44.0,31.12,NW,313,0.0,-999.0,60,-99.99,,,0.00,weatherlink.com 1.10,2013-11-03 00:00:00,
2013-11-02 20:15:00,57.0,45.0,31.12,NW,313,0.0,-999.0,64,-99.99,,,0.00,weatherlink.com 1.10,2013-11-03 00:15:00,
2013-11-02 20:30:00,55.5,45.0,31.12,NW,313,0.0,-999.0,67,-99.99,,,0.00,weatherlink.com 1.10,2013-11-03 00:30:00,
2013-11-02 20:45:00,54.8,44.0,31.12,WNW,283,0.0,-999.0,68,-99.99,,,0.00,weatherlink.com 1.10,2013-11-03 00:45:00,
2013-11-02 21:00:00,54.6,44.0,31.12,WNW,283,0.0,-999.0,68,-99.99,,,0.00,weatherlink.com 1.10,2013-11-03 01:00:00,
2013-11-02 21:15:00,53.9,44.0,31.12,WNW,283,0.0,-999.0,70,-99.99,,,0.00,weatherlink.com 1.10,2013-11-03 01:15:00,
2013-11-02 21:30:00,53.4,43.0,31.12,WNW,302,0.0,-999.0,68,-99.99,,,0.00,weatherlink.com 1.10,2013-11-03 01:30:00,
2013-11-02 21:45:00,54.2,44.0,31.12,NW,308,0.0,-999.0,68,-99.99,,,0.00,weatherlink.com 1.10,2013-11-03 01:45:00,
2013-11-02 22:00:00,54.1,43.0,31.12,WNW,296,0.0,-999.0,67,-99.99,,,0.00,weatherlink.com 1.10,2013-11-03 02:00:00,
2013-11-02 22:15:00,53.8,43.0,31.12,WNW,296,0.0,-999.0,67,-99.99,,,0.00,weatherlink.com 1.10,2013-11-03 02:15:00,
2013-11-02 22:30:00,53.3,43.0,31.12,WNW,295,0.0,-999.0,69,-99.99,,,0.00,weatherlink.com 1.10,2013-11-03 02:30:00,
2013-11-02 22:45:00,52.1,43.0,31.12,WNW,295,0.0,-999.0,72,-99.99,,,0.00,weatherlink.com 1.10,2013-11-03 02:45:00,
2013-11-02 23:00:00,51.0,43.0,31.12,WNW,295,0.0,-999.0,74,-99.99,,,0.00,weatherlink.com 1.10,2013-11-03 03:00:00,
2013-11-02 23:15:00,50.5,42.0,31.12,West,279,2.0,-999.0,73,-99.99,,,0.00,weatherlink.com 1.10,2013-11-03 03:15:00,
2013-11-02 23:30:00,51.1,42.0,31.12,West,280,0.0,-999.0,72,-99.99,,,0.00,weatherlink.com 1.10,2013-11-03 03:30:00,
2013-11-02 23:45:00,50.7,43.0,31.12,West,280,0.0,-999.0,74,-99.99,,,0.00,weatherlink.com 1.10,2013-11-03 03:45:00,